CDT,Max TemperatureF,Mean TemperatureF,Min TemperatureF,Max Dew PointF,MeanDew PointF,Min DewpointF,Max Humidity, Mean Humidity, Min Humidity, Max Sea Level PressureIn, Mean Sea Level PressureIn, Min Sea Level PressureIn, Max VisibilityMiles, Mean VisibilityMiles, Min VisibilityMiles, Max Wind SpeedMPH, Mean Wind SpeedMPH, Max Gust SpeedMPH,PrecipitationIn, CloudCover, Events, WindDirDegrees
2013-5-1,77,66,55,64,56,48,94,77,54,30.11,30.00,29.93,10,10,10,14,7,20,0.00,2,,134
2013-5-2,62,48,35,59,49,34,100,91,72,30.22,30.15,30.07,10,7,2,16,6,22,0.13,7,Rain,307
2013-5-3,37,34,32,36,33,32,100,96,87,30.20,30.05,29.92,10,4,2,15,10,26,0.73,7,Rain-Snow,307
2013-5-4,44,38,32,37,34,32,100,95,76,30.00,29.90,29.85,10,6,2,14,2,,0.33,7,Rain-Snow,324
2013-5-5,57,46,35,46,40,36,100,87,58,30.07,30.01,29.98,10,9,5,16,3,17,0.00,6,,303
2013-5-6,64,57,50,52,49,46,100,85,63,30.08,30.03,29.99,10,8,0,13,8,17,0.00,6,Fog-Rain,302
2013-5-7,75,62,50,52,50,46,100,76,38,30.10,30.05,30.01,10,8,3,9,3,,0.00,2,,287
2013-5-8,77,65,53,55,51,48,88,66,36,30.09,30.02,29.96,10,10,10,10,2,,0.00,2,,157
2013-5-9,77,67,57,59,57,54,100,80,47,30.00,29.97,29.93,10,8,2,15,6,31,0.25,7,Rain-Thunderstorm,211
2013-5-10,69,61,53,59,56,50,100,89,60,30.06,29.97,29.91,10,10,6,18,5,25,0.02,5,Rain,284
2013-5-11,71,60,48,52,46,32,100,77,30,30.21,30.11,30.06,10,7,0,16,2,24,0.00,1,Fog,317
2013-5-12,66,52,39,43,34,27,87,56,24,30.30,30.23,30.17,10,10,10,13,1,20,0.00,2,,336
2013-5-13,78,63,48,52,44,37,87,60,29,30.22,30.16,30.07,10,10,10,13,2,20,0.00,3,,175
2013-5-14,86,76,66,52,49,46,56,44,25,30.07,30.03,29.99,10,10,10,14,9,24,0.00,0,,223
2013-5-15,78,71,62,64,57,48,100,68,49,30.03,29.99,29.92,10,9,3,12,6,,0.00,3,Rain-Thunderstorm,193
2013-5-16,64,62,59,64,61,59,100,99,94,29.95,29.91,29.88,10,5,0,10,7,,0.00,6,Fog-Rain,128
2013-5-17,77,68,59,63,61,59,100,90,57,29.98,29.93,29.89,10,5,0,7,2,,0.00,7,Fog,129
2013-5-18,82,72,62,72,66,61,100,93,70,29.99,29.94,29.88,10,6,0,15,6,20,0.00,5,Fog-Rain-Thunderstorm,132
2013-5-19,84,75,66,72,66,63,100,83,48,29.90,29.84,29.73,10,5,0,16,6,24,0.00,4,Fog-Rain,146
2013-5-20,77,70,62,68,61,55,88,74,64,29.88,29.83,29.76,10,9,4,21,8,38,0.03,6,Rain-Thunderstorm,162
2013-5-21,66,62,57,59,58,55,100,89,68,29.93,29.82,29.67,10,9,4,18,8,33,0.09,5,Rain-Thunderstorm,207
2013-5-22,73,64,55,55,55,54,94,80,50,29.97,29.87,29.80,10,10,9,12,5,26,0.00,2,,251
2013-5-23,73,64,55,57,55,54,94,80,53,30.21,30.07,29.97,10,10,10,12,4,,0.00,2,,294
2013-5-24,71,62,53,54,49,45,94,70,43,30.35,30.27,30.21,10,10,9,14,8,24,0.00,1,,104
2013-5-25,80,66,53,63,52,45,83,68,51,30.28,30.22,30.13,10,10,7,13,8,17,0.00,2,Rain,139
2013-5-26,84,72,60,64,61,57,94,77,51,30.17,30.11,30.04,10,10,10,13,6,17,0.00,2,,153
2013-5-27,82,73,64,66,63,59,94,77,58,30.05,29.97,29.87,10,10,9,15,8,21,0.00,3,,161
2013-5-28,82,75,68,66,63,63,83,70,54,29.93,29.88,29.82,10,10,10,14,9,22,0.00,3,Rain,167
2013-5-29,80,73,66,64,63,63,88,75,54,29.96,29.91,29.83,10,10,10,16,8,28,0.00,2,,152
2013-5-30,82,72,62,66,63,59,100,82,54,29.90,29.85,29.78,10,10,3,21,10,41,0.22,5,Rain-Thunderstorm,156
2013-5-31,84,74,64,70,67,63,100,86,62,29.87,29.83,29.74,10,10,3,14,7,21,0.00,4,Thunderstorm,153